Terminal Aerodrome Forecast
Issued by NWS

Home | Current Version | Previous Version | Text Only | Print | Product List | Glossary On
Versions: 1 2 3 4 5 6 7 8 9 10 11 12 13 14
479
FTUS45 KVEF 282320
TAFBIH
TAF
KBIH 282320Z 2900/2924 36010G18KT P6SM VCTS SCT060CB BKN100
      TEMPO 2900/2903 -SHRA SCT050 BKN070
     FM290300 33010KT P6SM VCSH BKN100
     FM290500 33008KT P6SM BKN250
     FM291400 VRB06KT P6SM SCT250
     FM291900 16010G18KT P6SM BKN250=

USA.gov is the U.S. government's official web portal to all federal, state and local government web resources and services.